Вернуться в каталог

STARLINK-31576

АктивенСвязьVLEO
NORAD 59208·PAYLOAD·🇺🇸 United States

Запущен Mar 11, 2024 с Vandenberg Space Force Base

Loading…

Ближайшие Пролёты (ближайшие 24 часа)

TLE

СвежийSource: CelesTrak SupGP

Эпоха: Sep 14, 2026, 14:34 UTC

1 59208C 24046H   26257.60743056 -.00043668  00000+0 -12908-2 0  2570
2 59208  53.1606 353.5672 0001229  82.2660 289.3360 15.34396958    11

Отслеживайте STARLINK-31576 в реальном времени с AllMySat

Download on the App Store